Location: Gro�wechsungen
(51.4926°N, 10.6901°E)
Time: 00:50:30
(UTC+00:00)

ERS-1 Rocket - Pass Details

Date: 18 September 2020
Orbit: 754 x 757 km, 98.5° (Epoch: 23 October)

Event Time Altitude Azimuth Distance (km) Brightness Sun altitude
Exits shadow 20:57:23 59° 320° (NW) 874 3.4 -30.0°
Drops below altitude 10° 21:01:34 10° 342° (NNW) 2,297 6.3 -30.4°
Sets 21:03:53 0° 344° (NNW) 3,227 7.2 -30.6°
